Ypsilanti, MI

9:36 PM EDT on June 25, 2017 (GMT -0400)
Willow Run

Weather History for KYIP - January, 2014

Change the Weather History Date:

Thursday, January 16, 2014

  Actual Average Record
Temperature  
Mean Temperature 26 °F -  
Max Temperature 30 °F 29 °F 52 °F (1949)
Min Temperature 21 °F 15 °F -17 °F (2009)
Degree Days  
Heating Degree Days 40    
Moisture  
Dew Point 20 °F    
Average Humidity 74    
Maximum Humidity 82    
Minimum Humidity 63    
Precipitation  
Precipitation 0.00 in - - ()
Sea Level Pressure  
Sea Level Pressure 29.72 in    
Wind  
Wind Speed 14 mph (South)    
Max Wind Speed 18 mph    
Max Gust Speed 24 mph    
Visibility 4 miles    
Events Snow    
Averages and records for this station are not official NWS values.
T = Trace of Precipitation, MM = Missing Value Source: NWS Daily Summary

Daily Weather History Graph

Daily Weather History Graph

Search for Another Location

Airport or City:

Trip Planner

Search our weather history database for the weather conditions in past years. The results will help you decide how hot, cold, wet, or windy it might be!

Date:

Astronomy

Jan. 16, 2014 Rise Set
Actual Time 7:59 AM EST 5:28 PM EST
Civil Twilight 7:28 AM EST 5:59 PM EST
Nautical Twilight 6:54 AM EST 6:33 PM EST
Astronomical Twilight 6:20 AM EST 7:07 PM EST
Moon 6:21 PM EST (1/16) 7:51 AM EST (1/16)
Length of Visible Light 10h 30m
Length of Day
9h 28m
Full, 100% of the Moon is Illuminated
Jan 16
Full
Jan 24
Last Quarter
Jan 30
New
Feb 6
First Quarter
Feb 14
Full

Hourly Weather History & Observations

Time (EST) Temp. Windchill Dew Point Humidity Pressure Visibility Wind Dir Wind Speed Gust Speed Precip Events Conditions
12:31 AM 23.0 °F 10.6 °F 12.2 °F 63% 29.94 in 10.0 mi SW 13.8 mph - N/A   Overcast
12:53 AM 21.9 °F 9.2 °F 12.0 °F 66% 29.94 in 10.0 mi SW 13.8 mph - N/A   Overcast
1:53 AM 23.0 °F 9.6 °F 12.9 °F 65% 29.94 in 10.0 mi SSW 16.1 mph - N/A   Overcast
2:53 AM 23.0 °F 11.1 °F 12.0 °F 63% 29.93 in 10.0 mi SSW 12.7 mph - N/A   Overcast
3:53 AM 23.0 °F 13.1 °F 12.0 °F 63% 29.91 in 10.0 mi SW 9.2 mph - N/A   Overcast
4:53 AM 23.0 °F 12.4 °F 12.9 °F 65% 29.88 in 10.0 mi SSW 10.4 mph - N/A   Overcast
5:53 AM 21.9 °F 9.8 °F 12.0 °F 66% 29.87 in 10.0 mi SSW 12.7 mph - N/A   Overcast
6:53 AM 21.9 °F 8.7 °F 12.0 °F 66% 29.85 in 10.0 mi South 15.0 mph - N/A   Overcast
7:53 AM 23.0 °F 10.6 °F 12.9 °F 65% 29.82 in 10.0 mi South 13.8 mph - N/A   Overcast
8:53 AM 23.0 °F 10.6 °F 12.9 °F 65% 29.83 in 10.0 mi South 13.8 mph - N/A   Overcast
9:53 AM 25.0 °F 12.6 °F 14.0 °F 63% 29.82 in 9.0 mi South 15.0 mph - N/A   Overcast
10:03 AM 24.8 °F 13.4 °F 15.8 °F 69% 29.79 in 1.8 mi South 12.7 mph - 0.00 in Snow Light Snow
10:26 AM 24.8 °F 12.4 °F 15.8 °F 69% 29.78 in 3.0 mi South 15.0 mph - 0.00 in Snow Light Snow
10:50 AM 24.8 °F 11.9 °F 15.8 °F 69% 29.78 in 1.8 mi South 16.1 mph 24.2 mph 0.00 in Snow Light Snow
10:53 AM 25.0 °F 11.7 °F 16.0 °F 69% 29.80 in 1.5 mi South 17.3 mph - 0.00 in Snow Light Snow
11:39 AM 26.6 °F 14.7 °F 19.4 °F 74% 29.76 in 0.8 mi South 15.0 mph - 0.00 in Snow Light Snow
11:53 AM 26.1 °F 15.0 °F 19.0 °F 75% 29.78 in 1.0 mi South 12.7 mph - 0.00 in Snow Light Snow
12:05 PM 26.6 °F 14.3 °F 19.4 °F 74% 29.75 in 0.8 mi South 16.1 mph - 0.00 in Snow Light Snow
12:50 PM 26.6 °F 15.2 °F 19.4 °F 74% 29.71 in 1.0 mi South 13.8 mph - 0.00 in Snow Light Snow
12:53 PM 26.1 °F 14.5 °F 19.9 °F 78% 29.74 in 1.0 mi South 13.8 mph - 0.00 in Snow Light Snow
1:23 PM 26.6 °F 14.7 °F 19.4 °F 74% 29.70 in 1.0 mi South 15.0 mph - 0.00 in Snow Light Snow
1:40 PM 26.6 °F 13.4 °F 19.4 °F 74% 29.69 in 1.0 mi South 18.4 mph - 0.00 in Snow Light Snow
1:53 PM 27.0 °F 15.2 °F 21.0 °F 78% 29.71 in 1.0 mi South 15.0 mph - 0.00 in Snow Light Snow
2:41 PM 28.4 °F 16.2 °F 21.2 °F 74% 29.67 in 0.8 mi South 17.3 mph - 0.00 in Snow Light Snow
2:53 PM 27.0 °F 15.6 °F 21.0 °F 78% 29.69 in 0.5 mi South 13.8 mph - 0.00 in Snow Snow
3:15 PM 26.6 °F 15.7 °F 21.2 °F 80% 29.66 in 0.2 mi South 12.7 mph - 0.00 in Snow Heavy Snow
3:31 PM 26.6 °F 16.2 °F 21.2 °F 80% 29.66 in 0.5 mi South 11.5 mph - 0.00 in Snow Snow
3:48 PM 26.6 °F 16.2 °F 21.2 °F 80% 29.66 in 0.2 mi South 11.5 mph - 0.00 in Snow Heavy Snow
3:53 PM 27.0 °F 15.2 °F 21.9 °F 81% 29.68 in 0.2 mi South 15.0 mph - 0.00 in Snow Heavy Snow
4:11 PM 28.4 °F 18.0 °F 21.2 °F 74% 29.66 in 0.5 mi South 12.7 mph - 0.00 in Snow Snow
4:23 PM 28.4 °F 17.5 °F 21.2 °F 74% 29.66 in 0.8 mi South 13.8 mph - 0.00 in Snow Light Snow
4:34 PM 28.4 °F 17.5 °F 21.2 °F 74% 29.66 in 0.8 mi South 13.8 mph 21.9 mph 0.00 in Snow Light Snow
4:39 PM 28.4 °F 18.0 °F 21.2 °F 74% 29.66 in 1.0 mi South 12.7 mph - 0.00 in Snow Light Snow
4:53 PM 28.0 °F 16.5 °F 21.9 °F 78% 29.68 in 1.0 mi South 15.0 mph - 0.00 in Snow Light Snow
5:00 PM 28.4 °F 16.2 °F 21.2 °F 74% 29.67 in 10.0 mi South 17.3 mph - 0.00 in   Overcast
5:43 PM 28.4 °F 17.5 °F 21.2 °F 74% 29.68 in 10.0 mi South 13.8 mph - 0.00 in   Overcast
5:53 PM 28.9 °F 18.2 °F 21.9 °F 75% 29.69 in 10.0 mi South 13.8 mph - 0.00 in   Overcast
6:53 PM 30.0 °F 18.7 °F 21.9 °F 72% 29.69 in 9.0 mi South 16.1 mph - 0.00 in Snow Light Snow
7:17 PM 30.2 °F 19.8 °F 21.2 °F 69% 29.67 in 10.0 mi South 13.8 mph - 0.00 in   Overcast
7:53 PM 30.0 °F 19.5 °F 23.0 °F 75% 29.69 in 8.0 mi South 13.8 mph - 0.00 in Snow Light Snow
8:05 PM 30.2 °F 20.2 °F 23.0 °F 75% 29.66 in 9.0 mi South 12.7 mph - 0.00 in   Overcast
8:27 PM 30.2 °F 19.3 °F 23.0 °F 75% 29.66 in 2.5 mi South 15.0 mph - 0.00 in Snow Light Snow
8:34 PM 30.2 °F 18.9 °F 24.8 °F 80% 29.66 in 4.0 mi South 16.1 mph - 0.00 in Snow Light Snow
8:49 PM 30.2 °F 19.8 °F 24.8 °F 80% 29.66 in 2.5 mi South 13.8 mph - 0.00 in Snow Light Snow
8:53 PM 30.0 °F 18.7 °F 24.1 °F 79% 29.68 in 2.5 mi South 16.1 mph - 0.00 in Snow Light Snow
9:20 PM 30.2 °F 20.2 °F 24.8 °F 80% 29.66 in 1.8 mi South 12.7 mph - 0.00 in Snow Light Snow
9:32 PM 30.2 °F 19.8 °F 24.8 °F 80% 29.66 in 1.2 mi South 13.8 mph - 0.00 in Snow Light Snow
9:53 PM 30.0 °F 20.0 °F 25.0 °F 82% 29.68 in 1.8 mi South 12.7 mph - 0.00 in Snow Light Snow
9:55 PM 30.2 °F 20.2 °F 24.8 °F 80% 29.66 in 2.0 mi South 12.7 mph - 0.00 in Snow Light Snow
10:02 PM 30.2 °F 19.8 °F 24.8 °F 80% 29.66 in 3.0 mi South 13.8 mph - 0.00 in Snow Light Snow
10:16 PM 30.2 °F 20.2 °F 24.8 °F 80% 29.66 in 1.8 mi South 12.7 mph - 0.00 in Snow Light Snow
10:26 PM 30.2 °F 19.8 °F 24.8 °F 80% 29.65 in 1.8 mi South 13.8 mph - 0.00 in Snow Light Snow
10:33 PM 30.2 °F 19.3 °F 24.8 °F 80% 29.65 in 1.5 mi South 15.0 mph - 0.00 in Snow Light Snow
10:41 PM 30.2 °F 19.8 °F 24.8 °F 80% 29.65 in 2.0 mi South 13.8 mph - 0.00 in Snow Light Snow
10:53 PM 30.0 °F 19.5 °F 25.0 °F 82% 29.66 in 2.0 mi South 13.8 mph - 0.00 in Snow Light Snow
11:03 PM 30.2 °F 20.2 °F 24.8 °F 80% 29.64 in 2.5 mi South 12.7 mph - 0.00 in Snow Light Snow
11:13 PM 30.2 °F 18.9 °F 24.8 °F 80% 29.64 in 1.8 mi South 16.1 mph - 0.00 in Snow Light Snow
11:26 PM 30.2 °F 19.8 °F 24.8 °F 80% 29.64 in 2.5 mi SSW 13.8 mph - 0.00 in Snow Light Snow
11:53 PM 30.9 °F 20.7 °F 25.0 °F 79% 29.65 in 2.5 mi SSW 13.8 mph - 0.00 in Snow Light Snow